Flag for Canada Weather past 2 weeks in Miramichi, New Brunswick, Canada

Now
63 °F

Partly sunny.


Feels Like: 63 °F
Forecast: 53 / 74 °F
Wind: 8 mph from Southwest

Location: Bathurst Airport

Current Time: Jun 30, 2015 at 12:32:59 PM

Latest Report: Jun 30, 2015 at 11:00 AM


Visibility: 15 mi

Pressure: 29.92 "Hg

Humidity: 68%

Dew point: 52 °F

Location of MiramichiLocation

Historic Weather in Miramichi — Graph

°F

Miramichi temperature yesterday

Maximum temperature yesterday: 61 °F (at 7:00 PM)
Minimum temperature yesterday: 52 °F (at 2:00 AM)
Average temperature yesterday: 55 °F

Past Weeks' High & Low Weather Summary

 TemperatureHumidityPressure
High77 °F (Jun 15, 6:00 PM)100% (Jun 16, 10:00 PM)30.16 "Hg (Jun 16, 10:00 PM)
Low41 °F (Jun 27, 4:00 AM)27% (Jun 17, 4:00 PM)29.60 "Hg (Jun 24, 6:00 AM)
Average59 °F72%29.91 "Hg
* Reported Jun 15 11:00 AM — Jun 30 11:00 AM, Miramichi, Weather by CustomWeather, © 2015

Note: Actual official high and low records may vary slightly from our data, if they occured in-between our weather recording intervals... More about our weather records

Advertising

Miramichi weather history for previous 24 hours

 ConditionsComfort  
Time TempWeatherWind HumidityBarometerVisibility
11:00 AM
Tue, Jun 30
63 °FPartly sunny.8 mph68%29.92 "Hg15 mi
10:00 AM61 °FScattered clouds.5 mph68%29.91 "Hg15 mi
9:00 AM59 °FPartly sunny.7 mph72%29.90 "Hg15 mi
8:00 AM57 °FPartly sunny.7 mph77%29.89 "Hg15 mi
7:00 AM54 °FPartly sunny.7 mph88%29.88 "Hg15 mi
6:00 AM54 °FPartly cloudy.No wind88%29.86 "Hg15 mi
5:00 AM54 °FPartly cloudy.8 mph94%29.85 "Hg15 mi
4:00 AM52 °FPassing clouds.No wind94%29.83 "Hg15 mi
3:00 AM52 °FPassing clouds.2 mph100%29.82 "Hg15 mi
2:00 AM54 °FPassing clouds.6 mph100%29.81 "Hg15 mi
1:00 AM54 °FPassing clouds.No wind94%29.80 "Hg12 mi
12:00 AM55 °FPassing clouds.6 mph100%29.80 "Hg15 mi
11:00 PM
Mon, Jun 29
57 °FPassing clouds.2 mph94%29.79 "Hg15 mi
10:00 PM57 °FSprinkles. Partly sunny.2 mph94%29.78 "Hg15 mi
9:00 PM59 °FPartly sunny.3 mph88%29.77 "Hg15 mi
8:00 PM61 °FPartly sunny.No wind77%29.75 "Hg15 mi
7:00 PM61 °FScattered clouds.2 mph77%29.75 "Hg15 mi
6:00 PM59 °FBroken clouds.2 mph82%29.74 "Hg15 mi
5:50 PM57 °FBroken clouds.2 mph88%29.75 "Hg10 mi
5:00 PM55 °FLow clouds.6 mph88%29.75 "Hg8 mi
4:48 PM55 °FFog.6 mph94%29.75 "Hg6 mi
4:00 PM55 °FDrizzle. Fog.6 mph94%29.74 "Hg2 mi
3:00 PM55 °FDrizzle. Fog.7 mph94%29.73 "Hg3 mi
2:00 PM54 °FDrizzle. Fog.8 mph100%29.72 "Hg3 mi
1:00 PM55 °FFog.6 mph94%29.72 "Hg4 mi
12:00 PM54 °FSprinkles. Fog.7 mph100%29.74 "Hg2 mi
Weather by CustomWeather, © 2015

See weather overviewHow to use our weather pages